Volver al catálogo

SL-8 R/B

ActivoPO
NORAD 23527·ROCKET BODY·🇷🇺 Russia

Lanzado Mar 21, 1995 desde Plesetsk Cosmodrome

Loading…

Próximos Pases (próximas 24 horas)

TLE

ActualizadoSource: Space-Track

Época: Sep 14, 2026, 21:54 UTC

1 23527U 95012B   26257.91293926  .00000158  00000-0  15199-3 0  9991
2 23527  82.9400  55.6713 0018725 278.6414  81.2620 13.73974751577922

Sigue SL-8 R/B en tiempo real con AllMySat

Download on the App Store